Location: Newark
(44.1667°N, 8.2500°E)
Time: 18:07:18
(UTC+00:00)

Envisat - Pass Details

Date: 21 November 2019
Orbit: 764 x 766 km, 98.1° (Epoch: 08 December)

Event Time Altitude Azimuth Distance (km) Brightness Sun altitude
Rises 04:46:22 0° 35° (NE) 3,239 6.6 -18.3°
Reaches altitude 10° 04:50:45 10° 71° (ENE) 2,305 6.4 -17.5°
Maximum altitude 04:52:05 11° 87° (E) 2,236 6.6 -17.3°
Drops below altitude 10° 04:53:26 10° 102° (ESE) 2,300 6.8 -17.1°
Sets 04:57:45 0° 138° (SE) 3,218 7.1 -16.3°
